Simultaneous Nadir Overpasses (SNOs) Predictions

Prediction of SNOs between LANDSAT-8 and NOAA-19 Satellite Orbit:

Table of predicted SNOs for the next 14.0 days since TLE Epoch: 5/1/2021
Index Date (LANDSAT-8) Time (LANDSAT-8) Lat,Lon (LANDSAT-8) SZA (LANDSAT-8 ) Date (NOAA-19) Time (NOAA-19) Lat,Lon (NOAA-19) SZA (NOAA-19 ) Distance(km) Time Diff (sec)
1 05/02/2021 12:34:15 80.35, 21.69 66.22 05/02/2021 12:34:24 80.35, 21.72 66.23 0.55 9
2 05/04/2021 18:07:58 -80.35, 118.25 114.43 05/04/2021 18:07:35 -80.37, 118.13 114.43 3.27 23
3 05/04/2021 18:57:24 80.35, -74.10 65.57 05/04/2021 18:58:35 80.34, -74.13 65.59 0.88 71
4 05/06/2021 23:41:39 80.38,-144.89 65.01 05/06/2021 23:40:47 80.36,-144.95 64.97 2.11 52
5 05/07/2021 00:31:07 -80.35, 22.46 115.06 05/07/2021 00:31:45 -80.36, 22.43 115.04 1.02 38
6 05/09/2021 06:04:48 80.38, 119.28 64.39 05/09/2021 06:04:58 80.36, 119.17 64.37 2.74 10
7 05/11/2021 11:38:30 -80.37,-144.18 116.19 05/11/2021 11:38:06 -80.38,-144.32 116.21 2.67 24
8 05/11/2021 12:27:56 80.37, 23.42 63.80 05/11/2021 12:29:08 80.36, 23.26 63.80 3.36 72
9 05/13/2021 17:12:12 80.36, -47.74 63.24 05/13/2021 17:11:20 80.38, -47.63 63.24 2.95 52



Historial Predications of SNOs between LANDSAT-8 and NOAA-19
